TITAN 3C TRANSTAGE DEB, 1684

Orbit data source: Space-Track

TITAN 3C TRANSTAGE DEB, 1684 is space debris in LEO originally from a launch on Fri, 15 Oct 1965 UTC launched from the Air Force Eastern Test Range (AFETR). Debris objects in space refer to the collection of defunct objects orbiting the Earth. Examples of debris include non-operational satellites, rocket bodies, and fragments generated from explosions, collisions, or faulty payload assembly.

Loading next visibility...
Identifier
1684, 1965-082AX
Orbit
LEO
Country
Flag of USUS
Related business
Manufacturer
Unknown
Mission
Spacecraft
Bus & Motor
Unknown
Mass
Unknown
Launch date (UTC)
1965-10-15 (60 years ago)
Launch vehicle
Unknown
Launch site
Air Force Eastern Test Range (AFETR)
Object type
Payload
Rocket body
Debris
Shape & HBR
Unknown shape, 0.9 m
Radar Cross Section
Large (>1 m²)

Expand to show TLE details & history
Last TLE update: 15 hours ago

TLE from 15 hours ago
0 TITAN 3C TRANSTAGE DEB
1  1684U 65082AX  25310.46513060  .00003484  00000-0  91867-3 0  9999
2  1684  32.2160   7.5240 0168587 291.2834  66.9881 14.39622582110414
Epoch: 2025-11-06T11:09Z
TLE epoch observation values (Epoch: 2025-11-06T11:09:47.283Z)
Latitude
-0.00003°
Longitude
154.15388°
Altitude
713.123 km
Speed
7.525 km/s
True Right ascension
00h 30m 05s
True Declination
0° 00' 00"
Sunlit
Object was in full shadow at epoch
Visualization orbit readout
Latitude
Unknown
Longitude
Unknown
Altitude
Unknown
Speed
Unknown
Apparent Right ascension
Unknown
Apparent Declination
Unknown
Sunlit
N/A
Visualization observer readout
Local Sidereal Time
21:53:48
Azimuth
Unknown
Elevation
Unknown
Doppler factor
Unknown
Orbital elements
Apogee altitude
883.688 km
Perigee altitude
642.897 km
Semi-major axis
7,141.43 km
Eccentricity
0.01686
Inclination
32.216°
RAAN
7.524°
Arg. of periapsis
291.2834°
True anomaly
68.78071°
Mean anomaly
66.9881°
Eccentric anomaly
67.88296°
Mean motion
3.59638 °/min
Orbital period
100.1 mins
BSTAR
0.00091867

Documentation

Showing up to 5 results
|